Showing default

HODOYOSHI 4, 40011

Orbit data source: Space-Track

HODOYOSHI 4, 40011 is a payload satellite owned by Tokyo (JP) in SSO that was launched on Thu, 19 Jun 2014 UTC via a DNEPR launch vehicle from the Orenburg, Russia (OREN). Payload-class satellites include a variety of spacecraft equipped with specific instruments for various scientific and technological missions. These include communications satellites like Starlink; space stations such as the ISS; scientific satellites like the Hubble; Earth observation satellites from companies like Planet Labs, Umbra, and HawkEye 360; GPS; miniature CubeSats for education and research; and military/defense satellites.

Loading next visibility...
Identifier
40011, 2014-033B
Orbit
SSO
Country
Flag of JPJP / JPN
Related business
Manufacturer
AXELSPACE
Mission
Operational Amateur Imaging
Bus & Motor
HODOYOSHI, Unknown motor
Mass
64 kg wet, 64 kg dry
Launch date (UTC)
2014-06-19 (12 years ago)
Launch vehicle
DNEPR
Launch site
Orenburg, Russia (OREN)
Object type
Payload
Rocket body
Debris
Shape & HBR
Box + 2 Pan, 0.8 m
Radar Cross Section
0.614 m², Medium (>0.1 m² and < 1m²)

Expand to show TLE details & history
Last TLE update: 7 hours ago

TLE from 7 hours ago
0 HODOYOSHI 4
1 40011U 14033B   26254.29792999  .00000249  00000-0  32414-4 0  9995
2 40011  97.5478  74.9941 0024351  23.4309 336.8013 14.88301241661614
Epoch: 2026-09-11T07:09Z
TLE epoch observation values (Epoch: 2026-09-11T07:09:01.151Z)
Latitude
0.00006°
Longitude
-22.584°
Altitude
590.663 km
Speed
7.573 km/s
True Right ascension
04h 59m 58s
True Declination
0° 00' 00"
Sunlit
Object was in daylight at epoch
Visualization orbit readout
Latitude
Unknown
Longitude
Unknown
Altitude
Unknown
Speed
Unknown
Apparent Right ascension
Unknown
Apparent Declination
Unknown
Sunlit
N/A
Visualization observer readout
Local Sidereal Time
06:24:58
Azimuth
Unknown
Elevation
Unknown
Doppler factor
Unknown
Orbital elements
Apogee altitude
617.25 km
Perigee altitude
583.264 km
Semi-major axis
6,978.394 km
Eccentricity
0.00244
Inclination
97.5478°
RAAN
74.9941°
Arg. of periapsis
23.4309°
True anomaly
336.69107°
Mean anomaly
336.8013°
Eccentric anomaly
336.74622°
Mean motion
3.72314 °/min
Orbital period
96.69 mins
BSTAR
0.000032414
Loading maneuver chart data...
Computing Atmospheric mass density...
Loading historical data...
Loading historical data...
Loading historical data...
Loading historical data...
Loading historical data...
Loading historical data...
Loading historical data...

Documentation

Showing up to 5 results
|